Location: Silverdale
(47.6506°N, 122.6941°W)
Time: 05:00:52
(UTC+00:00)

N. Korean satellite - Visible Passes

Search period start: 16 August 2022 00:00
Search period end: 26 August 2022 00:00
Orbit: 433 x 470 km, 97.3° (Epoch: 15 August)

Date Brightness Start Highest point End Pass type
(mag) Time Alt. Az. Time Alt. Az. Time Alt. Az.
20 Aug 9.5 12:33:08 10° NE 12:35:25 16° E 12:37:40 10° SE visible
23 Aug 9.8 12:22:37 10° ENE 12:24:04 12° E 12:25:29 10° ESE visible
25 Aug 9.3 12:44:47 10° NE 12:47:33 22° E 12:50:18 10° SE visible
